Regional Weather Roundup
Issued by NWS Burlington, VT

Current Version | Previous Version | Text Only | Print | Product List | Glossary On
Versions: 1 2 3 4 5 6 7 8 9 10 11 12 13 14 15 16 17 18 19 20 21 22 23 24 25 26 27 28 29 30 31 32 33 34 35 36 37 38 39 40 41 42 43 44 45 46 47 48 49 50
000 ASUS41 KBTV 310330 RWRBTV VERMONT REGIONAL WEATHER ROUNDUP NATIONAL WEATHER SERVICE BURLINGTON VT 1100 PM EDT SAT JUL 30 2016 NOTE: "FAIR" INDICATES FEW OR NO CLOUDS BELOW 12,000 FEET WITH NO SIGNIFICANT WEATHER AND/OR OBSTRUCTIONS TO VISIBILITY. * THESE REPORTS ARE NOT UNDER NWS QUALITY CONTROL AND/OR DO NOT REPORT WEATHER SUCH AS PRECIPITATION AND FOG. VTZ001>019-310400- _____VERMONT_____ CITY SKY/WX TMP DP RH WIND PRES REMARKS BURLINGTON FAIR 67 55 65 N3 30.10F MONTPELIER FAIR 58 55 90 CALM 30.17R MORRISVILLE FAIR 56 53 90 CALM 30.15R ST. JOHNSBURY* N/A 63 57 81 MISG 30.11R LYNDONVILLE* FAIR 61 53 74 CALM 30.15S MIDDLEBURY* FAIR 62 57 84 CALM 30.10S RUTLAND* FAIR 64 59 83 SE3 30.10S HAZE SPRINGFIELD FAIR 67 60 78 CALM 30.09S HIGHGATE* FAIR 59 56 89 CALM 30.10S NEWPORT* FAIR 55 53 92 SW5 30.14S BENNINGTON RAIN 67 64 90 SE6 30.10R FOG SUTTON* N/A 57 N/A N/A MISG N/A MT. MANSFIELD* N/A 55 N/A N/A W5 N/A _____LAKE CHAMPLAIN_____ CITY SKY/WX TMP DP RH WIND PRES REMARKS BURTON ISLAND* N/A 68 57 68 E3 N/A COLCHESTER RF* N/A 70 63 78 NW8 N/A DIAMOND ISL* N/A 72 57 60 NW10 N/A $$ NYZ007-026>031-035-052-083-087-310400- _____NORTHERN NEW YORK_____ CITY SKY/WX TMP DP RH WIND PRES REMARKS PLATTSBURGH PTCLDY 61 56 83 CALM 30.10F SARANAC LAKE CLEAR 58 52 80 NE6 30.14R MASSENA CLEAR 58 54 86 CALM 30.11R OGDENSBURG* CLEAR 57 55 94 E5 30.09S POTSDAM* CLEAR 63 57 82 SE5 30.10S WATERTOWN MOCLDY 66 54 65 E7 30.06S FT DRUM MOCLDY 66 56 68 E6 30.07S ALBANY LGT RAIN 69 65 86 S6 30.07S GLENS FALLS CLOUDY 68 60 75 S3 30.08R $$ NHZ002-005-011-310400- _____NEW HAMPSHIRE_____ CITY SKY/WX TMP DP RH WIND PRES REMARKS LEBANON MOCLDY 66 59 78 NE5 30.09S KEENE LGT RAIN 69 65 86 CALM 30.08S MT WASHINGTON MOCLDY 48 46 93 SW9 N/A PLYMOUTH FAIR 62 59 90 CALM 30.09S WHITEFIELD CLOUDY 58 54 86 CALM 30.13S $$ _____REGIONAL QUEBEC LOCATIONS_____ CITY SKY/WX TMP DP RH WIND PRES REMARKS MONTREAL PTCLDY 70 55 60 S14 30.09S QUEBEC CITY PTCLDY 61 54 77 CALM 30.09R SHERBROOKE CLEAR 55 52 88 NE2 30.12S _____REGIONAL ONTARIO LOCATIONS_____ CITY SKY/WX TMP DP RH WIND PRES REMARKS OTTAWA PTCLDY 63 52 67 E6 30.11R ______KEY______ VSB - VISIBILITY IN MILES WCI - WIND CHILL INDEX HX - HEAT INDEX $$ NNNN

USA.gov is the U.S. government's official web portal to all federal, state and local government web resources and services.